Retour au catalogue

STARLINK-33684

ActifCommunicationsVLEO
NORAD 63649·PAYLOAD·🇺🇸 United States

Lancé Apr 25, 2025 depuis Cape Canaveral Space Force Station

Loading…

Prochains Passages (prochaines 24 heures)

TLE

FraisSource: CelesTrak SupGP

Époque: Sep 15, 2026, 03:19 UTC

1 63649C 25083R   26258.13868056  .00021025  00000+0  76145-3 0  2589
2 63649  43.0034  14.9676 0001851 268.6558 120.5343 15.27571068    13

Suivez STARLINK-33684 en temps réel avec AllMySat

Download on the App Store